FW6327 Weather Reports


Display with metric or nautical units.
time (UTC)temp
F
wind
direction
speed
MPH
gust
MPH
rain 1hr
in
rain 24hr
in
rain mn
in
humidity
%
barometer
mb
20260831001516 59 334 0.0 1.0 0.00 0.09 0.09 92 1009.8
20260831000013 59 334 0.0 2.0 0.00 0.09 0.09 92 1009.8
20260830234511 60 334 0.0 1.0 0.00 0.09 0.09 91 1010.1
20260830233009 60 335 1.0 3.0 0.00 0.09 0.09 91 1009.9
20260830231508 61 273 0.0 2.0 0.00 0.09 0.09 91 1009.8
20260830230006 61 273 0.0 1.0 0.00 0.09 0.09 91 1009.8
20260830224505 61 273 0.0 0.0 0.02 0.09 0.09 91 1009.8
20260830223002 62 273 0.0 2.0 0.04 0.09 0.09 90 1009.9
20260830221501 62 273 0.0 2.0 0.08 0.09 0.09 90 1010.0
20260830214617 62 273 1.0 4.0 0.07 0.07 0.07 88 1010.2
20260830213055 64 243 0.0 4.0 0.05 0.05 0.05 86 1010.3
20260830211554 65 188 0.0 2.0 0.01 0.01 0.01 83 1010.2
20260830210100 66 188 0.0 2.0 0.00 0.00 0.00 83 1009.9
20260830204559 67 188 0.0 2.0 0.00 0.00 0.00 81 1009.8
20260830203049 67 182 2.0 5.0 0.00 0.00 0.00 77 1009.9
20260830201545 67 171 0.0 3.0 0.00 0.00 0.00 78 1010.2
20260830200046 67 206 0.0 4.0 0.00 0.00 0.00 78 1010.2
20260830194539 67 225 3.0 6.0 0.00 0.00 0.00 75 1010.3
20260830193038 67 232 2.0 7.0 0.00 0.00 0.00 75 1010.4
20260830191536 67 198 4.0 7.0 0.00 0.00 0.00 73 1010.4
20260830190043 68 213 4.0 9.0 0.00 0.00 0.00 72 1010.4
20260830184531 68 213 3.0 8.0 0.00 0.00 0.00 71 1010.4
20260830183028 68 190 4.0 10.0 0.00 0.00 0.00 70 1010.6
20260830181527 69 206 5.0 12.0 0.00 0.00 0.00 68 1010.8
20260830180027 70 188 7.0 12.0 0.00 0.00 0.00 66 1010.8
20260830174521 70 163 7.0 14.0 0.00 0.00 0.00 64 1010.9
20260830173020 72 206 9.0 16.0 0.00 0.00 0.00 60 1011.1
20260830171515 73 199 9.0 25.0 0.00 0.00 0.00 59 1011.0
20260830170010 72 186 7.0 18.0 0.00 0.00 0.00 59 1011.1
20260830164508 72 153 7.0 24.0 0.00 0.00 0.00 59 1011.3
20260830163004 72 171 10.0 24.0 0.00 0.00 0.00 61 1011.5
20260830161500 72 165 11.0 18.0 0.00 0.00 0.00 62 1012.0
20260830160057 71 186 10.0 25.0 0.00 0.00 0.00 62 1012.0
20260830154554 72 180 8.0 19.0 0.00 0.01 0.00 63 1012.1
20260830153050 71 189 7.0 20.0 0.00 0.01 0.00 64 1012.4
20260830151549 71 205 10.0 19.0 0.00 0.01 0.00 63 1012.7
20260830150042 71 134 10.0 19.0 0.00 0.01 0.00 64 1013.0
20260830144538 71 186 8.0 18.0 0.00 0.05 0.00 68 1013.0
20260830143038 70 187 5.0 18.0 0.00 0.05 0.00 73 1013.2
20260830141530 69 180 6.0 13.0 0.00 0.05 0.00 75 1013.3
20260830140025 68 149 4.0 10.0 0.00 0.05 0.00 79 1013.6
20260830134529 67 243 6.0 11.0 0.00 0.08 0.00 82 1013.7
20260830133014 66 199 4.0 8.0 0.00 0.08 0.00 85 1013.8
20260830131509 64 254 4.0 10.0 0.00 0.08 0.00 88 1014.0
20260830130004 62 222 3.0 6.0 0.00 0.08 0.00 91 1014.0
20260830124558 61 186 0.0 4.0 0.00 0.11 0.00 94 1014.1
20260830123053 59 284 0.0 3.0 0.00 0.11 0.00 95 1014.5
20260830121547 57 9 0.0 2.0 0.00 0.11 0.00 95 1014.6
20260830120042 55 9 0.0 3.0 0.00 0.11 0.00 95 1015.0
20260830114537 53 9 0.0 2.0 0.00 0.12 0.00 95 1015.2
20260830113033 51 9 0.0 0.0 0.00 0.12 0.00 95 1015.3
20260830111528 50 9 0.0 0.0 0.00 0.12 0.00 95 1015.5
20260830110025 49 9 0.0 0.0 0.00 0.12 0.00 94 1015.5
20260830104549 48 9 0.0 0.0 0.00 0.16 0.00 94 1015.6
20260830103020 48 9 0.0 0.0 0.00 0.16 0.00 94 1015.7
20260830101519 47 9 0.0 0.0 0.00 0.16 0.00 94 1015.7
20260830100016 47 9 0.0 0.0 0.00 0.16 0.00 94 1015.5
20260830094514 47 9 0.0 0.0 0.00 0.32 0.00 94 1015.5
20260830093019 47 9 0.0 0.0 0.00 0.32 0.00 94 1015.7
20260830091509 47 9 0.0 0.0 0.00 0.32 0.00 94 1015.7
20260830090006 47 9 0.0 0.0 0.00 0.32 0.00 94 1015.5
20260830084505 47 9 0.0 0.0 0.00 0.45 0.00 94 1015.6
20260830083010 48 9 0.0 0.0 0.00 0.45 0.00 94 1015.7
20260830081502 48 9 0.0 0.0 0.00 0.45 0.00 94 1015.7
20260830080059 48 9 0.0 0.0 0.00 0.45 0.00 94 1015.6
20260830074559 48 9 0.0 0.0 0.00 0.46 0.00 94 1015.6
20260830073102 48 9 0.0 0.0 0.00 0.46 0.00 94 1015.7
20260830071552 48 9 0.0 0.0 0.00 0.46 0.00 94 1015.7
20260830070050 48 9 0.0 0.0 0.00 0.46 0.00 94 1015.8
20260830064548 48 9 0.0 0.0 0.00 0.46 0.00 94 1016.1
20260830063104 48 9 0.0 0.0 0.00 0.46 0.00 94 1015.9
20260830061549 47 9 0.0 0.0 0.00 0.46 0.00 94 1015.9
20260830060047 47 9 0.0 0.0 0.00 0.46 0.00 94 1015.9
20260830054543 47 9 0.0 0.0 0.00 0.46 0.00 94 1015.8
20260830053041 48 9 0.0 0.0 0.00 0.46 0.00 94 1016.0
20260830051533 48 9 0.0 0.0 0.00 0.46 0.00 94 1016.1
20260830050029 48 9 0.0 0.0 0.00 0.46 0.00 93 1016.2
20260830044527 49 9 0.0 0.0 0.00 0.46 0.00 93 1016.3
20260830043023 49 9 0.0 0.0 0.00 0.46 0.00 93 1016.3
20260830041524 49 9 0.0 0.0 0.00 0.46 0.00 94 1016.3
20260830040020 49 9 0.0 0.0 0.00 0.46 0.00 93 1016.3
20260830034517 50 9 0.0 0.0 0.00 0.46 0.00 93 1016.4
20260830033012 50 9 0.0 0.0 0.00 0.46 0.00 93 1016.3
20260830031511 50 9 0.0 0.0 0.00 0.46 0.00 93 1016.1
20260830030009 50 9 0.0 2.0 0.00 0.46 0.00 93 1016.2
20260830024506 50 9 0.0 1.0 0.00 0.46 0.46 93 1016.3
20260830023004 50 9 0.0 0.0 0.00 0.46 0.46 93 1016.2
20260830021502 50 9 1.0 2.0 0.00 0.46 0.46 92 1016.3
20260830020114 50 9 0.0 0.0 0.00 0.46 0.46 92 1016.2
20260830014559 51 9 0.0 1.0 0.00 0.46 0.46 92 1016.2
20260830013108 51 9 0.0 0.0 0.00 0.46 0.46 92 1016.3
20260830011603 51 9 0.0 1.0 0.00 0.46 0.46 92 1016.2
20260830010045 52 9 0.0 1.0 0.00 0.46 0.46 91 1016.1
20260830004543 52 9 0.0 1.0 0.00 0.46 0.46 91 1016.1
20260830003038 53 9 0.0 1.0 0.00 0.46 0.46 91 1015.8